• In Hungary
  • List of Countries
  • For 7 days
  • Water Temperature
  • Satellite Maps
  • Weather Map
  • News
  • Weather Widgets
  • user-avatar
    Login

    Hourly Weather Salta

    Today, 23 November, Thursday

    Time Temperature Precipitation Wind Pressure Humidity
    00:00 +18°C° 0 mm 1 mps 650 mmHg 69%
    01:00 +18°C° 0 mm 1 mps 649 mmHg 69%
    02:00 +18°C° 0 mm 1 mps 649 mmHg 70%
    03:00 +16°C° 0 mm 1 mps 649 mmHg 70%
    04:00 +16°C° 0 mm 1 mps 649 mmHg 69%
    05:00 +16°C° 0 mm 1 mps 649 mmHg 69%
    06:00 +19°C° 0 mm 1 mps 650 mmHg 60%
    07:00 +21°C° 0 mm 1 mps 650 mmHg 50%
    08:00 +24°C° 0 mm 2 mps 651 mmHg 41%
    09:00 +26°C° 0 mm 2 mps 651 mmHg 38%
    10:00 +27°C° 0 mm 3 mps 652 mmHg 34%
    11:00 +29°C° 0 mm 3 mps 652 mmHg 31%
    12:00 +30°C° 0 mm 4 mps 651 mmHg 30%
    13:00 +32°C° 0 mm 4 mps 651 mmHg 29%
    14:00 +33°C° 0 mm 4 mps 650 mmHg 28%
    15:00 +32°C° 0 mm 4 mps 649 mmHg 30%
    16:00 +32°C° 0 mm 4 mps 649 mmHg 32%
    17:00 +30°C° 0 mm 4 mps 648 mmHg 34%
    18:00 +28°C° 0 mm 3 mps 648 mmHg 42%
    19:00 +26°C° 0 mm 3 mps 648 mmHg 50%
    20:00 +23°C° 0 mm 2 mps 648 mmHg 58%
    21:00 +23°C° 0 mm 2 mps 648 mmHg 60%
    22:00 +22°C° 0 mm 1 mps 649 mmHg 62%
    23:00 +22°C° 0 mm 1 mps 649 mmHg 63%

    Tomorrow, 24 November, Friday

    Time Temperature Precipitation Wind Pressure Humidity
    00:00 +22°C° 0 mm 1 mps 649 mmHg 64%
    01:00 +21°C° 0 mm 1 mps 649 mmHg 65%
    02:00 +21°C° 0 mm 1 mps 648 mmHg 65%
    03:00 +21°C° 0 mm 1 mps 648 mmHg 64%
    04:00 +20°C° 0 mm 1 mps 648 mmHg 62%
    05:00 +20°C° 0 mm 1 mps 648 mmHg 61%
    06:00 +23°C° 0 mm 1 mps 649 mmHg 53%
    07:00 +25°C° 0 mm 1 mps 650 mmHg 45%
    08:00 +27°C° 0 mm 1 mps 651 mmHg 37%
    09:00 +29°C° 0 mm 2 mps 652 mmHg 34%
    10:00 +31°C° 0 mm 2 mps 652 mmHg 31%
    11:00 +33°C° 0 mm 3 mps 652 mmHg 28%
    12:00 +34°C° 0 mm 3 mps 652 mmHg 27%
    13:00 +35°C° 0 mm 4 mps 651 mmHg 27%
    14:00 +36°C° 0 mm 4 mps 650 mmHg 26%
    15:00 +35°C° 0.1 mm 4 mps 650 mmHg 28%
    16:00 +34°C° 0.1 mm 4 mps 649 mmHg 30%
    17:00 +34°C° 0.1 mm 4 mps 649 mmHg 32%
    18:00 +30°C° 0.2 mm 3 mps 649 mmHg 39%
    19:00 +28°C° 0.2 mm 2 mps 650 mmHg 46%
    20:00 +26°C° 0.2 mm 2 mps 650 mmHg 52%
    21:00 +25°C° 0.1 mm 2 mps 651 mmHg 58%
    22:00 +24°C° 0.1 mm 2 mps 651 mmHg 64%
    23:00 +22°C° 0.1 mm 3 mps 652 mmHg 70%

    Day after tomorrow, 25 November, Saturday

    Time Temperature Precipitation Wind Pressure Humidity
    00:00 +21°C° 0 mm 2 mps 651 mmHg 71%
    01:00 +20°C° 0 mm 2 mps 651 mmHg 71%
    02:00 +20°C° 0 mm 2 mps 650 mmHg 72%
    03:00 +19°C° 0 mm 2 mps 650 mmHg 74%
    04:00 +19°C° 0 mm 2 mps 651 mmHg 76%
    05:00 +19°C° 0 mm 1 mps 651 mmHg 78%
    06:00 +19°C° 0 mm 2 mps 651 mmHg 73%
    07:00 +20°C° 0 mm 2 mps 652 mmHg 68%
    08:00 +23°C° 0 mm 2 mps 653 mmHg 63%
    09:00 +24°C° 0 mm 2 mps 653 mmHg 56%
    10:00 +26°C° 0 mm 3 mps 653 mmHg 49%
    11:00 +28°C° 0 mm 3 mps 653 mmHg 43%
    12:00 +28°C° 0 mm 4 mps 653 mmHg 42%
    13:00 +29°C° 0 mm 4 mps 652 mmHg 42%
    14:00 +29°C° 0 mm 4 mps 651 mmHg 41%
    15:00 +29°C° 0 mm 4 mps 651 mmHg 44%
    16:00 +28°C° 0 mm 4 mps 650 mmHg 46%
    17:00 +27°C° 0 mm 4 mps 650 mmHg 49%
    18:00 +26°C° 0.1 mm 3 mps 650 mmHg 56%
    19:00 +24°C° 0.1 mm 2 mps 651 mmHg 64%
    20:00 +21°C° 0.1 mm 2 mps 651 mmHg 72%
    21:00 +21°C° 0.2 mm 2 mps 651 mmHg 74%
    22:00 +22°C° 0.2 mm 1 mps 652 mmHg 77%
    23:00 +21°C° 0.2 mm 1 mps 652 mmHg 79%

    26 November, Sunday

    Time Temperature Precipitation Wind Pressure Humidity
    00:00 +21°C° 0 mm 1 mps 651 mmHg 80%
    01:00 +20°C° 0 mm 1 mps 651 mmHg 81%
    02:00 +18°C° 0 mm 0 mps 650 mmHg 82%
    03:00 +20°C° 0 mm 1 mps 650 mmHg 82%
    04:00 +19°C° 0 mm 1 mps 650 mmHg 83%
    05:00 +19°C° 0 mm 1 mps 649 mmHg 83%
    06:00 +21°C° 0 mm 1 mps 650 mmHg 76%
    07:00 +23°C° 0 mm 1 mps 651 mmHg 69%
    08:00 +24°C° 0 mm 2 mps 652 mmHg 61%
    09:00 +25°C° 0 mm 2 mps 651 mmHg 58%
    10:00 +26°C° 0 mm 2 mps 651 mmHg 56%
    11:00 +27°C° 0 mm 3 mps 650 mmHg 53%
    12:00 +27°C° 0.1 mm 3 mps 650 mmHg 52%
    13:00 +27°C° 0.1 mm 3 mps 649 mmHg 52%
    14:00 +28°C° 0.1 mm 3 mps 648 mmHg 52%
    15:00 +27°C° 0 mm 3 mps 647 mmHg 53%
    16:00 +27°C° 0 mm 3 mps 647 mmHg 54%
    17:00 +27°C° 0 mm 3 mps 646 mmHg 54%
    18:00 +26°C° 0 mm 2 mps 647 mmHg 59%
    19:00 +25°C° 0 mm 2 mps 647 mmHg 64%
    20:00 +23°C° 0 mm 1 mps 648 mmHg 68%
    21:00 +23°C° 0 mm 1 mps 648 mmHg 70%
    22:00 +22°C° 0 mm 1 mps 648 mmHg 73%
    23:00 +21°C° 0 mm 1 mps 648 mmHg 75%

    27 November, Monday

    Time Temperature Precipitation Wind Pressure Humidity
    00:00 +21°C° 0 mm 1 mps 648 mmHg 76%
    01:00 +21°C° 0 mm 1 mps 648 mmHg 77%
    02:00 +20°C° 0 mm 1 mps 647 mmHg 78%
    03:00 +20°C° 0 mm 1 mps 648 mmHg 78%
    04:00 +20°C° 0 mm 1 mps 648 mmHg 78%
    05:00 +20°C° 0 mm 1 mps 648 mmHg 78%
    06:00 +22°C° 0 mm 1 mps 649 mmHg 70%
    07:00 +24°C° 0 mm 1 mps 651 mmHg 62%
    08:00 +26°C° 0 mm 1 mps 652 mmHg 55%
    09:00 +27°C° 0.1 mm 2 mps 652 mmHg 50%
    10:00 +29°C° 0.1 mm 2 mps 653 mmHg 45%
    11:00 +31°C° 0.1 mm 2 mps 653 mmHg 41%
    12:00 +31°C° 0.5 mm 3 mps 652 mmHg 42%
    13:00 +30°C° 0.5 mm 4 mps 652 mmHg 43%
    14:00 +30°C° 0.5 mm 4 mps 652 mmHg 44%
    15:00 +29°C° 1.2 mm 4 mps 651 mmHg 50%
    16:00 +27°C° 1.2 mm 3 mps 651 mmHg 56%
    17:00 +26°C° 1.2 mm 3 mps 650 mmHg 62%
    18:00 +25°C° 1.2 mm 2 mps 651 mmHg 68%
    19:00 +23°C° 1.2 mm 2 mps 651 mmHg 74%
    20:00 +22°C° 1.2 mm 1 mps 652 mmHg 80%
    21:00 +22°C° 1.2 mm 1 mps 652 mmHg 81%
    22:00 +21°C° 1.2 mm 1 mps 653 mmHg 81%
    23:00 +21°C° 1.2 mm 1 mps 653 mmHg 82%

    28 November, Tuesday

    Time Temperature Precipitation Wind Pressure Humidity
    00:00 +20°C° 0.6 mm 2 mps 653 mmHg 83%
    01:00 +20°C° 0.6 mm 2 mps 653 mmHg 84%
    02:00 +19°C° 0.6 mm 2 mps 652 mmHg 84%
    03:00 +20°C° 0.1 mm 1 mps 653 mmHg 85%
    04:00 +20°C° 0.1 mm 1 mps 653 mmHg 86%
    05:00 +20°C° 0.1 mm 1 mps 653 mmHg 87%
    06:00 +20°C° 0 mm 1 mps 653 mmHg 84%
    07:00 +20°C° 0 mm 1 mps 654 mmHg 81%
    08:00 +21°C° 0 mm 1 mps 655 mmHg 78%
    09:00 +21°C° 0 mm 2 mps 655 mmHg 72%
    10:00 +24°C° 0 mm 2 mps 654 mmHg 65%
    11:00 +25°C° 0 mm 3 mps 654 mmHg 58%
    12:00 +26°C° 0 mm 3 mps 654 mmHg 56%
    13:00 +27°C° 0 mm 3 mps 653 mmHg 54%
    14:00 +28°C° 0 mm 3 mps 652 mmHg 51%
    15:00 +28°C° 0.1 mm 3 mps 652 mmHg 51%
    16:00 +28°C° 0.1 mm 3 mps 651 mmHg 52%
    17:00 +27°C° 0.1 mm 3 mps 651 mmHg 52%
    18:00 +26°C° 0.3 mm 2 mps 651 mmHg 57%
    19:00 +25°C° 0.3 mm 2 mps 651 mmHg 62%
    20:00 +23°C° 0.3 mm 1 mps 652 mmHg 66%
    21:00 +23°C° 0 mm 1 mps 652 mmHg 68%
    22:00 +22°C° 0 mm 1 mps 652 mmHg 69%
    23:00 +22°C° 0 mm 1 mps 652 mmHg 71%
    Show more